| time (UTC) | temp F | wind direction | speed MPH | gust MPH | rain 1hr in | rain 24hr in | rain mn in | humidity % | barometer mb |
| 20260503214558 | 64 | 219 | 1.0 | 10.0 | 0.00 | 0.00 | 0.00 | 45 | 1015.7 |
| 20260503213052 | 65 | 229 | 0.0 | 10.0 | 0.00 | 0.00 | 0.00 | 44 | 1015.8 |
| 20260503211552 | 65 | 181 | 1.0 | 8.0 | 0.00 | 0.00 | 0.00 | 45 | 1015.9 |
| 20260503210050 | 65 | 205 | 2.0 | 10.0 | 0.00 | 0.00 | 0.00 | 43 | 1016.2 |
| 20260503204548 | 65 | 199 | 1.0 | 10.0 | 0.00 | 0.00 | 0.00 | 44 | 1016.3 |
| 20260503203047 | 66 | 163 | 3.0 | 8.0 | 0.00 | 0.00 | 0.00 | 43 | 1016.4 |
| 20260503201548 | 65 | 276 | 2.0 | 8.0 | 0.00 | 0.00 | 0.00 | 41 | 1016.8 |
| 20260503200045 | 65 | 229 | 2.0 | 10.0 | 0.00 | 0.00 | 0.00 | 39 | 1017.1 |
| 20260503194551 | 65 | 221 | 3.0 | 12.0 | 0.00 | 0.00 | 0.00 | 44 | 1017.4 |
| 20260503193041 | 65 | 210 | 0.0 | 7.0 | 0.00 | 0.00 | 0.00 | 44 | 1017.6 |
| 20260503191539 | 64 | 184 | 3.0 | 10.0 | 0.00 | 0.00 | 0.00 | 43 | 1017.7 |
| 20260503190044 | 65 | 200 | 0.0 | 11.0 | 0.00 | 0.00 | 0.00 | 43 | 1018.0 |
| 20260503184541 | 64 | 188 | 0.0 | 4.0 | 0.00 | 0.00 | 0.00 | 43 | 1018.2 |
| 20260503183041 | 63 | 178 | 2.0 | 10.0 | 0.00 | 0.00 | 0.00 | 41 | 1018.4 |
| 20260503181553 | 64 | 171 | 0.0 | 10.0 | 0.00 | 0.00 | 0.00 | 47 | 1018.5 |
| 20260503180045 | 62 | 119 | 0.0 | 10.0 | 0.00 | 0.00 | 0.00 | 44 | 1018.9 |
| 20260503174534 | 63 | 205 | 4.0 | 12.0 | 0.00 | 0.00 | 0.00 | 44 | 1019.0 |
| 20260503173031 | 62 | 159 | 3.0 | 11.0 | 0.00 | 0.00 | 0.00 | 43 | 1019.2 |
| 20260503171531 | 61 | 72 | 0.0 | 9.0 | 0.00 | 0.00 | 0.00 | 42 | 1019.5 |
| 20260503081537 | 41 | 160 | 0.0 | 0.0 | 0.00 | 0.00 | 0.00 | 86 | 1018.3 |
| 20260503071527 | 43 | 159 | 0.0 | 0.0 | 0.00 | 0.00 | 0.00 | 83 | 1017.6 |
| 20260503054514 | 48 | 160 | 0.0 | 0.0 | 0.00 | 0.00 | 0.00 | 78 | 1017.2 |
| 20260503053015 | 48 | 160 | 0.0 | 0.0 | 0.00 | 0.00 | 0.00 | 78 | 1017.2 |
| 20260503051504 | 49 | 159 | 0.0 | 0.0 | 0.00 | 0.00 | 0.00 | 77 | 1017.2 |
| 20260503050004 | 49 | 159 | 0.0 | 0.0 | 0.00 | 0.00 | 0.00 | 77 | 1017.1 |
| 20260503044501 | 49 | 159 | 0.0 | 0.0 | 0.00 | 0.00 | 0.00 | 77 | 1017.1 |
| 20260503043100 | 50 | 160 | 0.0 | 0.0 | 0.00 | 0.00 | 0.00 | 74 | 1017.0 |
| 20260503041611 | 50 | 160 | 0.0 | 0.0 | 0.00 | 0.00 | 0.00 | 73 | 1016.8 |
| 20260503040054 | 51 | 159 | 0.0 | 0.0 | 0.00 | 0.00 | 0.00 | 71 | 1016.6 |
| 20260503034551 | 52 | 159 | 0.0 | 0.0 | 0.00 | 0.00 | 0.00 | 69 | 1016.5 |
| 20260503033106 | 52 | 160 | 0.0 | 0.0 | 0.00 | 0.00 | 0.00 | 68 | 1016.4 |
| 20260503031550 | 53 | 160 | 0.0 | 0.0 | 0.00 | 0.00 | 0.00 | 67 | 1016.5 |
| 20260503030054 | 53 | 160 | 0.0 | 0.0 | 0.00 | 0.00 | 0.00 | 66 | 1016.3 |
| 20260503024554 | 52 | 159 | 0.0 | 4.0 | 0.00 | 0.00 | 0.00 | 65 | 1016.4 |
| 20260503023052 | 52 | 63 | 0.0 | 5.0 | 0.00 | 0.00 | 0.00 | 66 | 1016.3 |
| 20260503021550 | 51 | 24 | 2.0 | 10.0 | 0.00 | 0.00 | 0.00 | 72 | 1016.2 |
| 20260503020049 | 50 | 60 | 0.0 | 0.0 | 0.00 | 0.00 | 0.00 | 75 | 1016.0 |
| 20260503014548 | 51 | 60 | 0.0 | 0.0 | 0.00 | 0.00 | 0.00 | 73 | 1015.7 |
| 20260503013039 | 51 | 60 | 0.0 | 0.0 | 0.00 | 0.00 | 0.00 | 71 | 1015.4 |
| 20260503011537 | 52 | 60 | 0.0 | 0.0 | 0.00 | 0.00 | 0.00 | 71 | 1015.3 |
| 20260503010036 | 53 | 60 | 0.0 | 0.0 | 0.00 | 0.00 | 0.00 | 67 | 1015.1 |
| 20260503004534 | 54 | 60 | 0.0 | 0.0 | 0.00 | 0.00 | 0.00 | 65 | 1014.8 |
| 20260503003033 | 55 | 60 | 0.0 | 0.0 | 0.00 | 0.00 | 0.00 | 62 | 1014.7 |
| 20260503001532 | 56 | 60 | 0.0 | 1.0 | 0.00 | 0.00 | 0.00 | 61 | 1014.4 |
| 20260503000033 | 57 | 60 | 0.0 | 0.0 | 0.00 | 0.00 | 0.00 | 61 | 1014.3 |
| 20260502234537 | 58 | 60 | 0.0 | 0.0 | 0.00 | 0.00 | 0.00 | 57 | 1013.9 |
| 20260502233031 | 58 | 60 | 0.0 | 6.0 | 0.00 | 0.00 | 0.00 | 55 | 1013.8 |
| 20260502231531 | 59 | 43 | 1.0 | 3.0 | 0.00 | 0.00 | 0.00 | 50 | 1013.7 |
| 20260502230031 | 59 | 105 | 1.0 | 4.0 | 0.00 | 0.00 | 0.00 | 46 | 1013.7 |
| 20260502224530 | 60 | 52 | 2.0 | 5.0 | 0.00 | 0.00 | 0.00 | 46 | 1013.8 |
| 20260502223031 | 60 | 5 | 1.0 | 4.0 | 0.00 | 0.00 | 0.00 | 47 | 1013.7 |
| 20260502221529 | 61 | 157 | 1.0 | 5.0 | 0.00 | 0.00 | 0.00 | 42 | 1013.6 |
| 20260502220036 | 61 | 194 | 1.0 | 7.0 | 0.00 | 0.00 | 0.00 | 42 | 1013.4 |